Cutler
DateTemperatureDew Point
09/01 - 07:30 PM69.5°54.9°
09/01 - 07:15 PM71.6°55.3°
09/01 - 07:00 PM74.7°55.2°
09/01 - 06:45 PM77.1°52.9°
09/01 - 06:30 PM79.2°51.1°
09/01 - 06:15 PM80.5°49.5°
09/01 - 06:00 PM81.7°50.8°
09/01 - 05:45 PM83.0°50.8°
09/01 - 05:30 PM84.0°51.1°
09/01 - 05:15 PM84.2°51.6°
09/01 - 05:00 PM84.9°50.9°
09/01 - 04:45 PM85.7°50.1°
09/01 - 04:30 PM85.8°50.5°
09/01 - 04:15 PM86.2°51.5°
09/01 - 04:00 PM86.1°51.0°
09/01 - 03:45 PM86.6°51.9°
09/01 - 03:30 PM86.3°52.9°
09/01 - 03:15 PM85.2°52.9°
09/01 - 03:00 PM84.6°52.3°
09/01 - 02:45 PM84.4°53.2°
09/01 - 02:30 PM83.5°53.6°
09/01 - 02:15 PM82.7°53.7°
09/01 - 02:00 PM81.8°53.7°
09/01 - 01:45 PM81.1°53.7°
09/01 - 01:30 PM81.0°53.8°
09/01 - 01:15 PM80.4°54.7°
09/01 - 01:00 PM79.1°54.6°
09/01 - 12:45 PM78.1°55.1°
09/01 - 12:30 PM77.5°55.7°
09/01 - 12:15 PM77.0°56.7°
09/01 - 12:00 PM76.2°57.1°
09/01 - 11:45 AM75.5°57.8°
09/01 - 11:30 AM74.7°57.8°
09/01 - 11:15 AM73.4°57.5°
09/01 - 11:00 AM72.9°57.4°
09/01 - 10:45 AM71.7°57.0°
09/01 - 10:30 AM70.7°57.4°
09/01 - 10:15 AM69.4°56.7°
09/01 - 10:00 AM68.9°56.8°
09/01 - 09:45 AM67.8°56.6°
09/01 - 09:30 AM66.9°56.4°
09/01 - 09:15 AM65.0°55.3°
09/01 - 09:00 AM64.1°54.8°
09/01 - 08:45 AM62.9°54.4°
09/01 - 08:30 AM61.3°54.1°
09/01 - 08:15 AM60.1°54.1°
09/01 - 08:00 AM58.4°53.9°
09/01 - 07:45 AM56.7°54.3°
09/01 - 07:30 AM55.3°53.3°
09/01 - 07:15 AM54.2°51.8°
09/01 - 07:00 AM53.5°50.6°
09/01 - 06:45 AM53.1°49.7°
09/01 - 06:30 AM53.5°49.8°
09/01 - 06:15 AM54.1°50.1°
09/01 - 06:00 AM54.7°50.6°
09/01 - 05:45 AM55.7°50.5°
09/01 - 05:30 AM57.1°51.6°
09/01 - 05:15 AM58.2°52.7°
09/01 - 05:00 AM58.3°52.7°
09/01 - 04:45 AM58.6°53.0°
09/01 - 04:30 AM58.4°53.2°
09/01 - 04:15 AM58.9°53.1°
09/01 - 04:00 AM59.1°53.2°
09/01 - 03:45 AM59.8°53.5°
09/01 - 03:30 AM60.9°53.8°
09/01 - 03:15 AM61.8°54.1°
09/01 - 03:00 AM62.1°53.9°
09/01 - 02:45 AM62.9°54.0°
09/01 - 02:30 AM63.4°54.2°
09/01 - 02:15 AM63.6°54.4°
09/01 - 02:00 AM63.3°54.6°
09/01 - 01:45 AM63.8°54.6°
09/01 - 01:30 AM64.8°54.8°
09/01 - 01:15 AM65.8°54.6°
09/01 - 01:00 AM66.0°53.9°
09/01 - 12:45 AM66.2°53.7°
09/01 - 12:30 AM65.9°53.3°
09/01 - 12:15 AM66.3°53.3°
09/01 - 12:00 AM67.5°52.9°
08/31 - 11:45 PM67.7°52.3°
08/31 - 11:30 PM68.1°52.5°
08/31 - 11:15 PM69.0°53.0°
08/31 - 11:00 PM70.4°53.4°
08/31 - 10:45 PM71.9°53.3°
08/31 - 10:30 PM72.4°53.1°
08/31 - 10:15 PM71.0°52.9°
08/31 - 10:00 PM69.8°53.3°
08/31 - 09:45 PM68.6°54.0°
08/31 - 09:30 PM68.2°56.7°
08/31 - 09:15 PM68.6°56.2°
08/31 - 09:00 PM68.5°55.8°
08/31 - 08:45 PM69.0°56.3°
08/31 - 08:30 PM69.5°57.2°
08/31 - 08:15 PM69.7°57.3°
08/31 - 08:00 PM71.5°58.7°
08/31 - 07:45 PM72.6°58.9°
08/31 - 07:30 PM74.9°60.2°
08/31 - 07:15 PM77.6°61.9°
08/31 - 07:00 PM80.4°62.5°
08/31 - 06:45 PM83.6°62.5°
08/31 - 06:30 PM85.9°60.7°
08/31 - 06:15 PM87.8°58.2°
08/31 - 06:00 PM89.7°56.9°
08/31 - 05:45 PM91.1°55.3°
08/31 - 05:30 PM92.3°56.0°
08/31 - 05:15 PM92.6°55.7°
08/31 - 05:00 PM93.4°56.2°
08/31 - 04:45 PM93.4°56.1°
08/31 - 04:30 PM93.7°55.7°
08/31 - 04:15 PM94.7°56.1°
08/31 - 04:00 PM94.7°55.7°
08/31 - 03:45 PM94.5°55.3°
08/31 - 03:30 PM95.1°55.0°
08/31 - 03:15 PM94.2°55.5°
08/31 - 03:00 PM93.6°54.8°
08/31 - 02:45 PM93.4°55.3°
08/31 - 02:30 PM92.5°54.0°
08/31 - 02:15 PM91.8°54.8°
08/31 - 02:00 PM90.7°53.2°
08/31 - 01:45 PM90.1°53.0°
08/31 - 01:30 PM89.5°53.4°
08/31 - 01:15 PM89.1°54.4°
08/31 - 01:00 PM88.1°56.3°
08/31 - 12:45 PM86.9°56.9°
08/31 - 12:30 PM86.2°56.8°
08/31 - 12:15 PM86.3°57.1°
08/31 - 12:00 PM85.9°56.4°
08/31 - 11:45 AM85.0°56.2°
08/31 - 11:30 AM83.8°55.2°
08/31 - 11:15 AM83.3°55.0°
08/31 - 11:00 AM82.6°54.9°
08/31 - 10:45 AM81.2°54.7°
08/31 - 10:30 AM79.8°54.3°
08/31 - 10:15 AM78.3°53.6°
08/31 - 10:00 AM76.9°53.8°
08/31 - 09:45 AM75.2°54.8°
08/31 - 09:30 AM73.7°54.8°
08/31 - 09:15 AM72.3°54.7°
08/31 - 09:00 AM70.9°54.6°
08/31 - 08:45 AM68.4°54.4°
08/31 - 08:30 AM66.3°55.5°
08/31 - 08:15 AM64.7°55.5°
08/31 - 08:00 AM62.7°56.0°
08/31 - 07:45 AM59.9°55.6°
08/31 - 07:30 AM58.0°55.4°
08/31 - 07:15 AM56.8°54.5°
08/31 - 07:00 AM56.2°53.8°
08/31 - 06:45 AM55.0°52.6°
08/31 - 06:30 AM55.6°52.9°
08/31 - 06:15 AM54.7°51.8°
08/31 - 06:00 AM55.9°53.0°
08/31 - 05:45 AM56.1°53.0°
08/31 - 05:30 AM56.3°52.9°
08/31 - 05:15 AM56.6°53.1°
08/31 - 05:00 AM57.0°53.4°
08/31 - 04:45 AM57.3°53.6°
08/31 - 04:30 AM57.6°53.5°
08/31 - 04:15 AM58.0°53.7°
08/31 - 04:00 AM58.4°53.9°
08/31 - 03:45 AM58.3°53.6°
08/31 - 03:30 AM58.7°53.9°
08/31 - 03:15 AM58.8°53.8°
08/31 - 03:00 AM58.7°53.6°
08/31 - 02:45 AM58.9°53.3°
08/31 - 02:30 AM59.5°53.1°
08/31 - 02:15 AM59.8°53.8°
08/31 - 02:00 AM60.3°53.8°
08/31 - 01:45 AM61.0°54.2°
08/31 - 01:30 AM61.6°53.9°
08/31 - 01:15 AM61.9°53.3°
08/31 - 01:00 AM62.3°54.3°
08/31 - 12:45 AM62.5°54.1°
08/31 - 12:30 AM63.1°54.9°
08/31 - 12:15 AM63.3°55.7°
08/31 - 12:00 AM63.7°55.7°
08/30 - 11:45 PM64.5°55.9°
08/30 - 11:30 PM65.2°55.6°
08/30 - 11:15 PM65.5°55.2°
08/30 - 11:00 PM65.5°55.6°
08/30 - 10:45 PM65.4°56.1°
08/30 - 10:30 PM65.3°57.1°
08/30 - 10:15 PM65.8°58.6°
08/30 - 10:00 PM66.4°58.8°
08/30 - 09:45 PM67.2°59.2°
08/30 - 09:30 PM68.1°59.6°
08/30 - 09:15 PM68.8°59.7°
08/30 - 09:00 PM69.4°60.4°
08/30 - 08:45 PM70.3°60.7°
08/30 - 08:30 PM71.0°60.9°
08/30 - 08:15 PM71.9°60.9°
08/30 - 08:00 PM73.3°61.4°